sat.trackr.live / text

‹ back to catalog

STARLINK-35307

NORAD 66013 · 2025-232J

PAYLOAD ACTIVE UNKNOWN

§ Identity

Operator
Country
US
Launch date
2025-10-16
Launch site
AFETR
Launch vehicle
Mass (kg)
RCS (m²)

Purposes: comms

External: N2YO · Heavens-Above · Gunter

§ Orbital elements

Epoch: 2026-05-25T02:24:17.874432Z

Period
94.10 min
Inclination
53.1593°
Eccentricity
0.0001210
Mean motion
15.30219522 rev/d
Perigee alt
474.3 km
Apogee alt
476.0 km
Semi-major
6,853.3 km
B*
8.7392e-4
RAAN
109.0423°
Arg perigee
72.5222°
Mean anomaly
287.5911°
Rev number
3,513

§ Raw data

STARLINK-353071 66013U 25232J   26145.10020688  .00025629  00000+0  87392-3 0  99982 66013  53.1593 109.0423 0001210  72.5222 287.5911 15.30219522 35132

JSON: /api/v1/satellites/66013 · /tle

For live sub-satellite position, see the globe view (requires WebGL).

§ Visibility from observer

Set your observer location to see the next 7 days of passes ≥ 10°. The values pass through the URL so the page stays shareable.

No JS? Fill the form by hand. The geolocation button needs JavaScript.